Regional Weather Roundup
Issued by NWS

Home | Current Version | Previous Version | Graphics & Text | Print | Product List | Glossary On
Versions: 1 2 3 4 5 6 7 8 9 10 11 12 13 14 15 16 17 18 19 20 21 22 23 24 25 26 27 28 29 30 31 32 33 34 35 36 37 38 39 40 41 42 43 44 45 46 47 48 49 50
553
ASUS43 KMPX 260010
RWRMN
WEATHER ROUNDUP FOR MINNESOTA
NATIONAL WEATHER SERVICE TWIN CITIES/CHANHASSEN MN
700 PM CDT WED APR 25 2018


NOTE: "FAIR" INDICATES FEW OR NO CLOUDS BELOW 12,000 FEET WITH NO
SIGNIFICANT WEATHER AND/OR OBSTRUCTIONS TO VISIBILITY. N/A MEANS
CURRENT SKY AND/OR WEATHER CONDITIONS ARE NOT AVAILABLE.

MNZ060>063-068>070-260100-
   Twin Cities Metro

CITY           SKY/WX    TMP DP  RH WIND       PRES   REMARKS
TWIN CITIES    PTSUNNY   58  23  26 W6        30.02F
6HR MIN TEMP:  53; 6HR MAX TEMP:  61;

ST PAUL        FAIR      58  25  28 SW12      30.02F
CRYSTAL        FAIR      57  26  30 SW9       30.01F
BLAINE         MOSUNNY   59  25  27 W8        30.02F
LAKEVILLE      FAIR      55  30  38 W6        30.02F
EDEN PRAIRIE   FAIR      57  28  33 W7        30.02F
6HR MIN TEMP:  52; 6HR MAX TEMP:  59;

SOUTH ST PAUL  FAIR      59  24  25 W6        30.01F
LAKE ELMO      FAIR      59  25  27 S5        30.02F
$$
MNZ001>005-007-008-013>017-022>024-027-028-260100-
   Northwest Minnesota

CITY           SKY/WX    TMP DP  RH WIND       PRES   REMARKS
BEMIDJI        FAIR      55  28  35 SW12      29.91F
HALLOCK        FAIR      64  25  22 SW22      29.77F
ROSEAU         FAIR      61  39  44 SW17G26   29.81F
WARROAD        FAIR      59  37  44 SW14G24   29.82F
THIEF RVR FALL FAIR      60  33  36 SW23G31   29.84F
CROOKSTON      FAIR      61  36  39 SW16      29.84F
FOSSTON        FAIR      57  32  38 S18G25    29.89F
DETROIT LAKES  FAIR      55  32  41 S10       29.93F
MOORHEAD       FAIR      61  34  36 S13G23    29.90F
PARK RAPIDS    FAIR      55  28  35 SW12      29.94F
MAHNOMEN       FAIR      58  34  40 SW20      29.89F
$$
MNZ006-009>011-018-025>026-260100-
   North Central Minnesota

CITY           SKY/WX    TMP DP  RH WIND       PRES   REMARKS
BAUDETTE       FAIR      58  35  42 SW15G24   29.83F
FLAG ISLAND    FAIR      52  32  46 S14       29.79F
INTL FALLS     FAIR      59  28  30 SW10G21   29.86F
6HR MIN TEMP:  57; 6HR MAX TEMP:  63;

WASKISH        FAIR      55  30  38 SW8       29.88F
BIG FORK       FAIR      55  27  33 S9        29.91F
LONGVILLE      FAIR      55  25  30 S5        29.94F
GRAND RAPIDS   FAIR      55  26  32 S10       29.95F
CRANE LAKE     FAIR      55  21  26 SW8       29.92F
ORR            FAIR      55  19  24 S5        29.88F
COOK           FAIR      55  25  30 SW5       29.92F
WALKER         FAIR      54  25  32 SW10G17   29.93F
$$
MNZ012-019>021-037-260100-
   Northeast Minnesota

CITY           SKY/WX    TMP DP  RH WIND       PRES   REMARKS
DULUTH         FAIR      56  22  26 SW10      29.96F
6HR MIN TEMP:  51; 6HR MAX TEMP:  58;

ELY            FAIR      55  21  26 SW7       29.92F
HIBBING        FAIR      54  24  31 SW6       29.93F
EVELETH        FAIR      55  26  32 SW9       29.95F
DULUTH HARBOR  FAIR      43  30  61 CALM      29.98F
TWO HARBORS    FAIR      57  28  33 S6        29.96S
SILVER BAY     FAIR      50  21  32 SE5       29.96F
GRAND MARAIS     N/A     36  31  82 SW5       30.00F
G MARAIS ARPRT FAIR      41  19  42 S6        29.97F
$$
MNZ029>031-032-039>041-046>048-054>057-064-260100-
   West Central Minnesota

CITY           SKY/WX    TMP DP  RH WIND       PRES   REMARKS
FERGUS FALLS   FAIR      57  36  44 S10       29.91F
WHEATON        MOSUNNY   59  30  33 S12       29.97F
MORRIS         CLOUDY    57  37  47 S8        29.97F
ALEXANDRIA     FAIR      57  30  35 SW10      29.99F
ELBOW LAKE     FAIR      55  37  51 S9        29.97F
WADENA         FAIR      54  32  43 SW9       29.96F
GLENWOOD       FAIR      54  30  40 S9        30.00F
APPLETON       CLOUDY    59  30  33 S8        29.98F
BENSON         SUNNY     55  30  38 SW8       30.00F
ORTONVILLE     CLOUDY    57  34  41 SW6       29.98F
WILLMAR        FAIR      55  34  44 SW7       30.04F
$$
MNZ033>034-036-042>043-049>051-058-059-260100-
   Central Minnesota

CITY           SKY/WX    TMP DP  RH WIND       PRES   REMARKS
ST CLOUD       FAIR      57  27  31 SW9       30.00F
6HR MIN TEMP:  51; 6HR MAX TEMP:  58;

SAUK CENTRE    FAIR      54  30  40 SW9       29.99F
PAYNESVILLE    FAIR      55  32  42 S7        30.02F
AITKIN         FAIR      52  25  35 S6        29.96F
PINE RIVER     FAIR      54  30  40 S9        29.98F
BRAINERD       FAIR      57  27  31 SW10      29.97F
STAPLES        FAIR      54  23  30 SW10      29.97F
LONG PRAIRIE   FAIR      54  28  37 S8        29.99F
LITTLE FALLS   FAIR      55  18  22 SW10      30.00F
LITCHFIELD     FAIR      55  34  44 W6        30.03F
BUFFALO        FAIR      55  27  33 SW5       30.03F
MAPLE LAKE     FAIR      56  30  37 SW5       30.02F
HUTCHINSON     FAIR      55  37  49 SW6       30.04F
$$
MNZ037-044-045-052-053-260100-
   East Central Minnesota

CITY           SKY/WX    TMP DP  RH WIND       PRES   REMARKS
PRINCETON      FAIR      57  23  26 SW5       30.01F
MORA           FAIR      54  25  32 SW5       30.02F
CAMBRIDGE      FAIR      61  36  39 W3        30.00F
RUSH CITY      FAIR      56  23  27 SW5       30.01F
MOOSE LAKE     FAIR      55  19  24 W8        29.97F
HINCKLEY       FAIR      55  28  35 SW7       29.99F
CLOQUET        FAIR      55  10  16 SW9       29.97F
MCGREGOR       FAIR      54  28  37 S5        29.98F
$$
MNZ071>073-080-081-089-090-097-098-260100-
   Southwest Minnesota

CITY           SKY/WX    TMP DP  RH WIND       PRES   REMARKS
MONTEVIDEO     MOSUNNY   57  30  35 SW8       30.01F
GRANITE FALLS  SUNNY     58  36  44 S7        30.03F
CANBY          CLOUDY    58  31  35 SW9       30.01F
MARSHALL       SUNNY     58  33  39 W7        30.02F
REDWOOD FALLS  SUNNY     55  32  41 SW10      30.03F
OLIVIA         SUNNY     54  32  43 SW6       30.02F
PIPESTONE      SUNNY    N/A N/A N/A W6        30.02F
WINDOM         SUNNY     55  27  33 SW3       30.04F
WORTHINGTON    SUNNY     56  30  37 SW5       30.04F
JACKSON        SUNNY     54  30  40 CALM      30.04F
TRACY          SUNNY     56  35  44 S5        30.02F
SLAYTON        SUNNY     56  31  38 SW6       30.04S
$$
MNZ065>067-074>077-082>085-091>093-260100-
   South Central Minnesota

CITY           SKY/WX    TMP DP  RH WIND       PRES   REMARKS
MANKATO        FAIR      55  31  39 SW5       30.04F
NEW ULM        SUNNY     55  30  38 W5        30.04F
ST JAMES       SUNNY     55  34  44 W3        30.05F
FAIRMONT       SUNNY     55  33  43 W5        30.04F
GLENCOE        FAIR      56  35  44 CALM      30.03F
OWATONNA       FAIR      55  30  38 NW5       30.03F
WASECA         FAIR      54  32  43 NW5       30.05F
ALBERT LEA     FAIR      55  30  38 W3        30.03F
$$
MNZ078>079-086>088-094>096-260100-
   Southeast Minnesota

CITY           SKY/WX    TMP DP  RH WIND       PRES   REMARKS
ROCHESTER      FAIR      56  33  42 NW6       30.03F
6HR MIN TEMP:  53; 6HR MAX TEMP:  59;

RED WING       FAIR      59  18  20 NW3       30.01F
STANTON        FAIR      58  26  29 NW3       30.01F
DODGE CENTER   FAIR      55  27  33 NW3       30.03F
WINONA         FAIR      59  28  31 CALM      30.00F
AUSTIN         FAIR      55  30  38 CALM      30.03F
PRESTON        FAIR      55  27  33 N6        30.03F
$$
ABBREVIATIONS USED IN REMARKS
   TC - TEMPERATURES IN CELSIUS
  WCI - WIND CHILL INDEX
   HX - HEAT INDEX
  VSB - VISIBILITY
$$




USA.gov is the U.S. government's official web portal to all federal, state and local government web resources and services.